GW1480 Weather Reports


Display with metric or nautical units.
time (UTC)temp
F
wind
direction
speed
MPH
gust
MPH
rain 1hr
in
rain 24hr
in
rain mn
in
humidity
%
barometer
mb
20260507115712 50 243 0.0 0.0 0.00 0.00 0.00 98 1016.9
20260507115146 49 230 0.0 0.0 0.00 0.00 0.00 98 1016.9
20260507114527 49 232 0.0 0.0 0.00 0.00 0.00 98 1017.2
20260507113916 49 230 0.0 0.0 0.00 0.00 0.00 98 1017.2
20260507113326 49 236 0.0 0.0 0.00 0.00 0.00 98 1017.2
20260507112752 49 237 0.0 0.0 0.00 0.00 0.00 98 1017.2
20260507111513 48 235 0.0 0.0 0.00 0.00 0.00 98 1017.2
20260507110940 48 241 0.0 0.0 0.00 0.00 0.00 98 1016.9
20260507110320 48 231 0.0 0.0 0.00 0.00 0.00 98 1016.5
20260507105718 48 231 0.0 0.0 0.00 0.00 0.00 98 1016.5
20260507105143 48 230 0.0 0.0 0.00 0.00 0.00 98 1016.2
20260507104546 48 230 0.0 0.0 0.00 0.00 0.00 98 1016.5
20260507103320 48 229 0.0 0.0 0.00 0.00 0.00 98 1016.5
20260507102729 48 236 0.0 0.0 0.00 0.00 0.00 98 1016.2
20260507101525 48 232 0.0 0.0 0.00 0.00 0.00 98 1016.2
20260507100912 48 231 0.0 0.0 0.00 0.00 0.00 98 1015.9
20260507100332 48 228 0.0 0.0 0.00 0.00 0.00 98 1016.2
20260507095740 48 227 0.0 0.0 0.00 0.00 0.00 98 1016.2
20260507095110 48 231 0.0 0.0 0.00 0.00 0.00 98 1016.2
20260507093930 49 234 0.0 0.0 0.00 0.00 0.00 98 1016.5
20260507093344 49 238 0.0 0.0 0.00 0.00 0.00 98 1016.5
20260507092744 49 237 0.0 0.0 0.00 0.00 0.00 98 1016.2
20260507092130 49 238 0.0 0.0 0.00 0.00 0.00 98 1016.2
20260507091510 49 230 0.0 0.0 0.00 0.00 0.00 98 1016.2
20260507090940 49 230 0.0 0.0 0.00 0.00 0.00 98 1016.2
20260507090318 49 236 0.0 0.0 0.00 0.00 0.00 98 1016.2
20260507085715 49 231 0.0 0.0 0.00 0.00 0.00 98 1016.2
20260507085109 49 230 0.0 0.0 0.00 0.00 0.00 98 1016.2
20260507084541 49 229 0.0 0.0 0.00 0.00 0.00 98 1016.2
20260507083925 49 227 0.0 0.0 0.00 0.00 0.00 98 1015.9
20260507083327 49 235 0.0 0.0 0.00 0.00 0.00 98 1016.2
20260507082121 50 244 0.0 0.0 0.00 0.00 0.00 98 1016.2
20260507081530 50 248 0.0 0.0 0.00 0.00 0.00 98 1016.2
20260507080917 50 241 0.0 0.0 0.00 0.00 0.00 98 1015.9
20260507080337 50 240 0.0 0.0 0.00 0.00 0.00 98 1016.2
20260507075716 50 237 0.0 0.0 0.00 0.00 0.00 98 1016.5
20260507075136 50 232 0.0 0.0 0.00 0.00 0.00 98 1016.5
20260507074541 50 235 0.0 0.0 0.00 0.00 0.00 98 1016.2
20260507073952 50 230 0.0 0.0 0.00 0.00 0.00 98 1016.2
20260507073328 50 235 0.0 0.0 0.00 0.00 0.00 98 1016.2
20260507072748 50 242 0.0 0.0 0.00 0.00 0.00 98 1015.9
20260507072116 50 234 0.0 0.0 0.00 0.00 0.00 98 1015.9
20260507071537 50 230 0.0 0.0 0.00 0.00 0.00 98 1016.2
20260507070310 50 239 0.0 0.0 0.00 0.00 0.00 98 1016.2
20260507065753 50 245 0.0 0.0 0.00 0.00 0.00 98 1016.2
20260507064514 50 230 0.0 0.0 0.00 0.00 0.00 98 1016.2
20260507063913 51 248 0.0 0.0 0.00 0.00 0.00 98 1016.5
20260507063347 51 230 0.0 0.0 0.00 0.00 0.00 98 1016.2
20260507062716 51 219 0.0 0.0 0.00 0.00 0.00 98 1016.2
20260507062130 51 227 0.0 0.0 0.00 0.00 0.00 98 1016.2
20260507061517 51 218 0.0 0.0 0.00 0.00 0.00 98 1016.5
20260507060928 51 226 0.0 0.0 0.00 0.00 0.00 98 1016.2
20260507060317 51 199 0.0 0.0 0.00 0.00 0.00 98 1016.5
20260507055734 51 230 0.0 0.0 0.00 0.00 0.00 98 1016.5
20260507055110 51 230 0.0 0.0 0.00 0.00 0.00 98 1016.5
20260507053926 51 231 0.0 0.0 0.00 0.00 0.00 98 1016.9
20260507052712 52 219 0.0 0.0 0.00 0.00 0.00 98 1016.5
20260507052148 52 228 0.0 0.0 0.00 0.00 0.00 98 1016.9
20260507051524 53 218 0.0 0.0 0.00 0.00 0.00 98 1016.5
20260507050911 53 232 0.0 0.0 0.00 0.00 0.00 98 1016.5
20260507050342 53 234 0.0 0.0 0.00 0.00 0.00 98 1016.9
20260507045750 54 229 0.0 0.0 0.00 0.00 0.00 98 1016.5
20260507045142 54 232 0.0 0.0 0.00 0.00 0.00 98 1016.5
20260507044539 54 234 0.0 0.0 0.00 0.00 0.00 98 1016.5
20260507043954 54 214 0.0 0.0 0.00 0.00 0.00 98 1016.5
20260507041541 55 232 0.0 0.0 0.00 0.00 0.00 98 1016.5
20260507040932 55 229 0.0 0.0 0.00 0.00 0.00 98 1016.2
20260507040332 55 237 0.0 0.0 0.00 0.00 0.00 98 1016.2
20260507035713 55 236 0.0 0.0 0.00 0.00 0.64 98 1016.5
20260507035145 55 231 0.0 0.0 0.00 0.00 0.64 98 1016.2
20260507034518 55 238 0.0 0.0 0.00 0.00 0.64 98 1015.9
20260507033911 55 230 0.0 0.0 0.00 0.00 0.64 98 1016.2
20260507033343 55 232 0.0 0.0 0.00 0.00 0.64 98 1016.2
20260507032121 55 230 0.0 0.0 0.00 0.00 0.64 98 1016.2
20260507030950 55 231 0.0 0.0 0.00 0.00 0.64 98 1016.2
20260507030351 55 240 0.0 0.0 0.00 0.00 0.64 98 1016.2
20260507025726 55 241 0.0 0.0 0.00 0.00 0.64 98 1016.2
20260507024540 55 221 0.0 0.0 0.00 0.00 0.64 98 1016.2
20260507023911 55 256 0.0 0.0 0.00 0.00 0.64 98 1016.5
20260507023354 55 261 0.0 0.0 0.00 0.00 0.64 98 1015.9
20260507022710 55 240 0.0 0.0 0.00 0.00 0.64 98 1015.5
20260507022117 55 204 0.0 0.0 0.00 0.00 0.64 98 1016.5
20260507021541 55 283 0.0 0.0 0.00 0.00 0.64 98 1016.9
20260507020939 55 305 0.0 0.0 0.00 0.00 0.64 98 1016.5
20260507020318 55 199 0.0 0.0 0.00 0.00 0.64 98 1016.5
20260507015728 55 246 0.0 0.0 0.00 0.00 0.64 98 1016.5
20260507015145 55 259 0.0 0.0 0.00 0.00 0.64 98 1016.2
20260507014513 55 251 0.0 0.0 0.00 0.00 0.64 98 1016.2
20260507013930 55 264 0.0 0.0 0.00 0.00 0.64 98 1015.5
20260507013354 55 120 0.0 0.0 0.00 0.00 0.64 98 1015.2
20260507012144 55 236 0.0 0.0 0.00 0.00 0.64 98 1016.2
20260507011532 55 227 0.0 0.0 0.00 0.00 0.64 98 1015.5
20260507010953 55 124 0.0 0.0 0.00 0.00 0.64 98 1014.9
20260507010329 55 147 0.0 0.0 0.00 0.00 0.64 98 1014.9
20260507005135 55 226 0.0 0.0 0.00 0.00 0.64 98 1015.5
20260507004543 55 236 0.0 0.0 0.00 0.00 0.64 98 1015.5
20260507003345 56 238 0.0 0.0 0.00 0.00 0.64 98 1015.2
20260507002729 56 244 0.0 0.0 0.00 0.00 0.64 98 1014.5
20260507001548 56 226 0.0 0.0 0.00 0.00 0.64 98 1014.5
20260507000314 56 218 0.0 0.0 0.00 0.00 0.63 97 1015.2
20260506235729 56 255 0.0 0.0 0.00 0.00 0.61 97 1015.5
20260506235133 56 232 0.0 0.0 0.00 0.00 0.61 97 1015.5
20260506234523 56 231 0.0 0.0 0.00 0.00 0.61 97 1015.2
20260506233939 56 221 0.0 0.0 0.00 0.00 0.61 97 1014.9
20260506233351 56 93 0.0 0.0 0.00 0.00 0.61 97 1014.5
20260506232743 56 235 0.0 0.0 0.00 0.00 0.61 97 1014.5
20260506232149 56 226 0.0 0.0 0.00 0.00 0.61 97 1014.9
20260506231525 56 217 0.0 0.0 0.00 0.00 0.61 97 1014.9
20260506230932 56 216 0.0 0.0 0.00 0.00 0.61 97 1015.2
20260506230329 56 225 0.0 0.0 0.00 0.00 0.60 96 1015.2
20260506225711 56 222 0.0 0.0 0.00 0.00 0.60 97 1015.2
20260506225110 56 245 0.0 0.0 0.00 0.00 0.60 96 1015.2
20260506224517 57 226 0.0 0.0 0.00 0.00 0.59 96 1015.2
20260506223932 57 247 0.0 0.0 0.00 0.00 0.59 96 1015.2
20260506223327 57 229 0.0 0.0 0.00 0.00 0.59 96 1015.5
20260506222722 57 236 0.0 0.0 0.00 0.00 0.59 96 1014.9
20260506222145 57 264 0.0 0.0 0.00 0.00 0.59 96 1015.2
20260506221515 57 278 0.0 0.0 0.00 0.00 0.59 96 1014.9
20260506220918 58 194 0.0 0.0 0.00 0.00 0.59 96 1014.5
20260506220343 57 253 0.0 0.0 0.00 0.00 0.59 96 1014.9
20260506215738 57 223 0.0 0.0 0.00 0.00 0.59 96 1014.5
20260506215142 57 221 0.0 0.0 0.00 0.00 0.59 96 1014.9
20260506214549 57 224 0.0 0.0 0.00 0.00 0.59 96 1015.2
20260506213317 57 222 0.0 0.0 0.00 0.00 0.59 96 1014.9
20260506212713 57 188 0.0 0.0 0.00 0.00 0.59 96 1014.2
20260506212127 57 228 0.0 0.0 0.00 0.00 0.59 96 1014.9
20260506210930 56 208 0.0 0.0 0.00 0.00 0.59 96 1014.9
20260506210347 56 235 0.0 0.0 0.00 0.00 0.59 97 1014.9
20260506204531 56 245 0.0 0.0 0.00 0.00 0.57 97 1014.9
20260506203311 55 244 0.0 0.0 0.00 0.00 0.57 97 1014.5
20260506202713 55 232 0.0 0.0 0.00 0.00 0.57 97 1014.5
20260506201533 55 204 2.0 2.0 0.00 0.00 0.57 97 1014.9
20260506200314 55 228 0.0 0.0 0.00 0.00 0.56 97 1014.5
20260506195752 55 216 2.0 5.0 0.00 0.00 0.56 97 1014.9
20260506194536 56 247 4.0 7.0 0.00 0.00 0.56 97 1014.9
20260506193953 56 194 2.0 5.0 0.00 0.00 0.56 97 1014.9
20260506193353 56 248 0.0 0.0 0.00 0.00 0.56 97 1014.5
20260506192743 56 286 1.0 2.0 0.00 0.00 0.56 97 1014.5
20260506192132 56 217 2.0 5.0 0.00 0.00 0.56 97 1014.5
20260506191543 56 225 0.0 0.0 0.00 0.00 0.56 97 1014.5
20260506190913 56 243 0.0 0.0 0.00 0.00 0.56 97 1014.2
20260506190341 56 227 0.0 0.0 0.00 0.00 0.56 97 1014.2
20260506185719 56 219 0.0 0.0 0.00 0.00 0.54 97 1014.2
20260506184536 56 230 0.0 0.0 0.00 0.00 0.54 97 1014.2
20260506183920 56 229 0.0 0.0 0.00 0.00 0.54 97 1014.2
20260506183330 56 213 0.0 0.0 0.00 0.00 0.54 97 1014.2
20260506182741 56 254 0.0 0.0 0.00 0.00 0.54 97 1014.2
20260506181541 56 237 0.0 0.0 0.00 0.00 0.54 97 1013.8
20260506180936 56 218 0.0 0.0 0.00 0.00 0.54 97 1013.8
20260506180354 56 240 3.0 7.0 0.00 0.00 0.54 97 1013.5
20260506175748 56 242 3.0 5.0 0.00 0.00 0.54 97 1013.8
20260506175127 56 237 4.0 7.0 0.00 0.00 0.54 97 1013.5
20260506174531 56 258 4.0 5.0 0.00 0.00 0.54 97 1013.8
20260506173943 56 229 3.0 5.0 0.00 0.00 0.54 97 1013.8
20260506173318 56 210 3.0 5.0 0.00 0.00 0.54 97 1013.8
20260506172712 56 264 1.0 2.0 0.00 0.00 0.53 97 1013.8
20260506172141 56 218 2.0 2.0 0.00 0.00 0.53 97 1013.8
20260506170953 56 235 2.0 2.0 0.00 0.00 0.53 97 1013.8
20260506170310 56 273 2.0 5.0 0.00 0.00 0.53 97 1013.8
20260506163946 57 234 4.0 5.0 0.00 0.00 0.52 97 1013.8
20260506163334 57 207 3.0 5.0 0.00 0.00 0.52 97 1013.5
20260506162749 58 194 4.0 7.0 0.00 0.00 0.52 97 1013.5
20260506162115 58 295 3.0 5.0 0.00 0.00 0.52 97 1013.5
20260506161546 59 209 2.0 5.0 0.00 0.00 0.52 97 1013.5
20260506160934 60 269 3.0 5.0 0.00 0.00 0.52 97 1013.5
20260506160351 61 250 3.0 5.0 0.00 0.00 0.52 97 1013.5
20260506155711 62 226 4.0 5.0 0.00 0.00 0.52 97 1013.2
20260506155128 62 275 4.0 7.0 0.00 0.00 0.52 96 1013.2
20260506154542 63 248 4.0 5.0 0.00 0.00 0.52 96 1012.8
20260506153930 63 351 0.0 0.0 0.00 0.00 0.51 97 1012.8
20260506153334 63 249 1.0 2.0 0.00 0.00 0.51 96 1012.5
20260506152733 63 206 0.0 0.0 0.00 0.00 0.51 97 1012.5
20260506151533 62 186 0.0 0.0 0.00 0.00 0.51 97 1012.5
20260506150933 62 226 0.0 0.0 0.00 0.00 0.51 97 1012.5
20260506150311 62 67 0.0 0.0 0.00 0.00 0.51 97 1012.5
20260506145750 62 204 0.0 0.0 0.00 0.00 0.51 97 1012.1
20260506145133 62 67 3.0 5.0 0.00 0.00 0.51 97 1012.1
20260506144538 62 227 0.0 0.0 0.00 0.00 0.51 97 1011.8
20260506143929 62 101 0.0 0.0 0.00 0.00 0.51 97 1012.1
20260506143317 62 110 0.0 0.0 0.00 0.00 0.51 97 1011.8
20260506142716 62 106 0.0 0.0 0.00 0.00 0.51 97 1012.1
20260506142117 62 54 0.0 0.0 0.00 0.00 0.51 97 1011.8
20260506141523 62 104 2.0 2.0 0.00 0.00 0.51 98 1012.1
20260506140935 62 75 0.0 0.0 0.00 0.00 0.51 98 1012.1
20260506140343 61 61 0.0 0.0 0.00 0.00 0.51 98 1012.1
20260506135734 61 224 0.0 0.0 0.00 0.00 0.51 98 1012.1
20260506135139 61 89 0.0 0.0 0.00 0.00 0.51 97 1011.8
20260506134512 61 92 0.0 0.0 0.00 0.00 0.51 97 1012.1
20260506133920 61 86 0.0 0.0 0.00 0.00 0.51 97 1011.8
20260506133350 61 103 0.0 0.0 0.00 0.00 0.51 97 1011.5
20260506132744 61 210 0.0 0.0 0.00 0.00 0.51 98 1011.5
20260506132120 61 57 0.0 2.0 0.00 0.00 0.51 98 1011.1
20260506131514 61 171 0.0 0.0 0.00 0.00 0.51 98 1011.5
20260506130920 61 231 0.0 0.0 0.00 0.00 0.51 98 1011.1
20260506125727 60 194 0.0 0.0 0.00 0.00 0.51 98 1011.1
20260506125146 60 224 0.0 0.0 0.00 0.00 0.51 98 1010.8
20260506124511 60 194 0.0 0.0 0.00 0.00 0.51 98 1011.1
20260506123932 60 210 0.0 0.0 0.00 0.00 0.51 98 1010.8
20260506123320 60 71 0.0 2.0 0.00 0.00 0.51 98 1010.8
20260506122715 60 235 0.0 0.0 0.00 0.00 0.51 98 1010.8
20260506122149 60 142 0.0 0.0 0.00 0.00 0.51 98 1010.8
20260506121518 60 153 0.0 0.0 0.00 0.00 0.51 98 1010.8